Location: Derby
(52.9213°N, 1.4761°W)
Time: 19:29:24
(UTC+01:00)

Tiros 1 - Pass Details

Date: 20 May 2025
Orbit: 620 x 651 km, 48.4° (Epoch: 13 June)

Event Time Altitude Azimuth Distance (km) Brightness Sun altitude
Rises 21:56:56 0° 269° (W) 2,909 11.2 -6.6°
Reaches altitude 10° 21:59:20 10° 263° (W) 2,006 10.2 -6.9°
Maximum altitude 22:03:42 43° 192° (SSW) 888 7.6 -7.3°
Drops below altitude 10° 22:08:06 10° 121° (ESE) 2,021 9.1 -7.7°
Enters shadow 22:08:27 - 120° (ESE) 2,153 9.2 -7.8°
Sets 22:10:30 0° 115° (ESE) 2,935 - -8.0°
